• In Belarus
  • List of Countries
  • For 7 days
  • Water Temperature
  • Satellite Maps
  • Weather Map
  • Weather Widgets
  • user-avatar
    Login

    Hourly Weather Franceville

    Today, 20 June, Thursday

    Time Temperature Precipitation Wind Pressure Humidity
    00:00 +28°C° 0 mm 1 mps 733 mmHg 64%
    01:00 +27°C° 0 mm 1 mps 732 mmHg 70%
    02:00 +27°C° 0 mm 1 mps 732 mmHg 72%
    03:00 +26°C° 0 mm 1 mps 732 mmHg 75%
    04:00 +26°C° 0 mm 1 mps 732 mmHg 77%
    05:00 +26°C° 0 mm 1 mps 732 mmHg 77%
    06:00 +26°C° 0 mm 1 mps 732 mmHg 77%
    07:00 +26°C° 0 mm 1 mps 733 mmHg 77%
    08:00 +28°C° 0 mm 1 mps 733 mmHg 68%
    09:00 +31°C° 0 mm 1 mps 733 mmHg 58%
    10:00 +33°C° 0 mm 1 mps 734 mmHg 49%
    11:00 +35°C° 0 mm 1 mps 733 mmHg 43%
    12:00 +36°C° 0 mm 1 mps 732 mmHg 38%
    13:00 +39°C° 0 mm 1 mps 732 mmHg 33%
    14:00 +37°C° 0 mm 1 mps 731 mmHg 36%
    15:00 +35°C° 0 mm 1 mps 730 mmHg 39%
    16:00 +34°C° 0 mm 1 mps 730 mmHg 42%
    17:00 +33°C° 0 mm 1 mps 730 mmHg 46%
    18:00 +31°C° 0 mm 1 mps 731 mmHg 50%
    19:00 +30°C° 0 mm 1 mps 731 mmHg 54%
    20:00 +29°C° 0 mm 1 mps 732 mmHg 58%
    21:00 +29°C° 0 mm 1 mps 732 mmHg 61%
    22:00 +28°C° 0 mm 1 mps 733 mmHg 64%
    23:00 +28°C° 0 mm 1 mps 733 mmHg 67%

    Tomorrow, 21 June, Friday

    Time Temperature Precipitation Wind Pressure Humidity
    00:00 +27°C° 0 mm 1 mps 733 mmHg 69%
    01:00 +24°C° 0 mm 0 mps 733 mmHg 72%
    02:00 +24°C° 0 mm 0 mps 733 mmHg 74%
    03:00 +23°C° 0 mm 0 mps 732 mmHg 77%
    04:00 +23°C° 0 mm 0 mps 732 mmHg 79%
    05:00 +23°C° 0 mm 0 mps 733 mmHg 79%
    06:00 +23°C° 0 mm 0 mps 733 mmHg 79%
    07:00 +23°C° 0 mm 0 mps 734 mmHg 78%
    08:00 +28°C° 0 mm 1 mps 734 mmHg 70%
    09:00 +30°C° 0 mm 1 mps 734 mmHg 61%
    10:00 +32°C° 0 mm 1 mps 734 mmHg 52%
    11:00 +34°C° 0 mm 1 mps 734 mmHg 46%
    12:00 +36°C° 0 mm 1 mps 733 mmHg 40%
    13:00 +37°C° 0 mm 1 mps 732 mmHg 35%
    14:00 +36°C° 0 mm 1 mps 732 mmHg 39%
    15:00 +35°C° 0 mm 1 mps 731 mmHg 43%
    16:00 +33°C° 0 mm 1 mps 730 mmHg 48%
    17:00 +32°C° 0.5 mm 1 mps 731 mmHg 57%
    18:00 +30°C° 0.5 mm 1 mps 731 mmHg 66%
    19:00 +28°C° 0.5 mm 1 mps 731 mmHg 76%
    20:00 +28°C° 0.8 mm 1 mps 732 mmHg 77%
    21:00 +27°C° 0.8 mm 1 mps 733 mmHg 79%
    22:00 +27°C° 0.8 mm 2 mps 733 mmHg 81%
    23:00 +26°C° 0 mm 1 mps 733 mmHg 83%

    Day after tomorrow, 22 June, Saturday

    Time Temperature Precipitation Wind Pressure Humidity
    00:00 +26°C° 0 mm 1 mps 733 mmHg 85%
    01:00 +25°C° 0 mm 1 mps 733 mmHg 87%
    02:00 +25°C° 0 mm 1 mps 733 mmHg 87%
    03:00 +24°C° 0 mm 1 mps 733 mmHg 88%
    04:00 +24°C° 0 mm 1 mps 732 mmHg 89%
    05:00 +24°C° 0 mm 1 mps 733 mmHg 88%
    06:00 +22°C° 0 mm 0 mps 733 mmHg 87%
    07:00 +22°C° 0 mm 0 mps 734 mmHg 87%
    08:00 +26°C° 0 mm 1 mps 734 mmHg 77%
    09:00 +28°C° 0 mm 1 mps 734 mmHg 67%
    10:00 +31°C° 0 mm 1 mps 734 mmHg 58%
    11:00 +32°C° 0 mm 1 mps 734 mmHg 54%
    12:00 +33°C° 0 mm 1 mps 733 mmHg 50%
    13:00 +34°C° 0 mm 1 mps 733 mmHg 46%
    14:00 +35°C° 0 mm 2 mps 732 mmHg 47%
    15:00 +34°C° 0 mm 2 mps 731 mmHg 47%
    16:00 +34°C° 0 mm 2 mps 731 mmHg 48%
    17:00 +32°C° 0 mm 2 mps 731 mmHg 54%
    18:00 +30°C° 0 mm 1 mps 731 mmHg 60%
    19:00 +29°C° 0 mm 1 mps 732 mmHg 66%
    20:00 +28°C° 0 mm 1 mps 732 mmHg 70%
    21:00 +27°C° 0 mm 1 mps 733 mmHg 73%
    22:00 +26°C° 0 mm 1 mps 733 mmHg 76%
    23:00 +26°C° 0 mm 1 mps 733 mmHg 78%

    23 June, Sunday

    Time Temperature Precipitation Wind Pressure Humidity
    00:00 +25°C° 0 mm 1 mps 733 mmHg 79%
    01:00 +25°C° 0 mm 1 mps 732 mmHg 80%
    02:00 +24°C° 0 mm 1 mps 732 mmHg 78%
    03:00 +24°C° 0 mm 1 mps 732 mmHg 76%
    04:00 +23°C° 0 mm 1 mps 732 mmHg 75%
    05:00 +23°C° 0 mm 1 mps 732 mmHg 73%
    06:00 +23°C° 0 mm 1 mps 733 mmHg 72%
    07:00 +23°C° 0 mm 1 mps 733 mmHg 71%
    08:00 +26°C° 0 mm 1 mps 733 mmHg 62%
    09:00 +28°C° 0 mm 1 mps 734 mmHg 54%
    10:00 +30°C° 0 mm 1 mps 734 mmHg 45%
    11:00 +32°C° 0 mm 1 mps 734 mmHg 41%
    12:00 +34°C° 0 mm 1 mps 733 mmHg 37%
    13:00 +35°C° 0 mm 1 mps 732 mmHg 33%
    14:00 +35°C° 0 mm 1 mps 732 mmHg 34%
    15:00 +36°C° 0 mm 2 mps 731 mmHg 35%
    16:00 +35°C° 0 mm 2 mps 730 mmHg 36%
    17:00 +33°C° 0 mm 1 mps 731 mmHg 42%
    18:00 +31°C° 0 mm 1 mps 731 mmHg 48%
    19:00 +29°C° 0 mm 1 mps 732 mmHg 54%
    20:00 +28°C° 0.1 mm 1 mps 732 mmHg 58%
    21:00 +27°C° 0.1 mm 1 mps 732 mmHg 62%
    22:00 +24°C° 0.1 mm 0 mps 733 mmHg 67%
    23:00 +23°C° 0 mm 0 mps 733 mmHg 66%

    24 June, Monday

    Time Temperature Precipitation Wind Pressure Humidity
    00:00 +23°C° 0 mm 0 mps 732 mmHg 66%
    01:00 +22°C° 0 mm 0 mps 732 mmHg 66%
    02:00 +22°C° 0 mm 0 mps 732 mmHg 68%
    03:00 +21°C° 0 mm 0 mps 732 mmHg 69%
    04:00 +20°C° 0 mm 0 mps 732 mmHg 70%
    05:00 +21°C° 0 mm 0 mps 732 mmHg 71%
    06:00 +23°C° 0 mm 1 mps 732 mmHg 73%
    07:00 +23°C° 0 mm 1 mps 733 mmHg 74%
    08:00 +25°C° 0 mm 1 mps 733 mmHg 63%
    09:00 +28°C° 0 mm 1 mps 733 mmHg 53%
    10:00 +30°C° 0 mm 1 mps 734 mmHg 43%
    11:00 +32°C° 0 mm 1 mps 733 mmHg 38%
    12:00 +34°C° 0 mm 1 mps 732 mmHg 34%
    13:00 +36°C° 0 mm 1 mps 732 mmHg 30%
    14:00 +36°C° 0 mm 1 mps 731 mmHg 29%
    15:00 +36°C° 0 mm 1 mps 730 mmHg 29%
    16:00 +36°C° 0 mm 1 mps 729 mmHg 28%
    17:00 +33°C° 0 mm 1 mps 730 mmHg 36%
    18:00 +31°C° 0 mm 1 mps 730 mmHg 44%
    19:00 +28°C° 0 mm 1 mps 730 mmHg 52%
    20:00 +28°C° 0 mm 1 mps 731 mmHg 56%
    21:00 +27°C° 0 mm 1 mps 732 mmHg 60%
    22:00 +24°C° 0 mm 0 mps 732 mmHg 65%
    23:00 +23°C° 0 mm 0 mps 732 mmHg 65%

    25 June, Tuesday

    Time Temperature Precipitation Wind Pressure Humidity
    00:00 +23°C° 0 mm 0 mps 732 mmHg 66%
    01:00 +22°C° 0 mm 0 mps 732 mmHg 66%
    02:00 +22°C° 0 mm 0 mps 732 mmHg 67%
    03:00 +23°C° 0 mm 1 mps 732 mmHg 68%
    04:00 +22°C° 0 mm 1 mps 731 mmHg 69%
    05:00 +22°C° 0 mm 1 mps 732 mmHg 70%
    06:00 +22°C° 0 mm 1 mps 732 mmHg 72%
    07:00 +22°C° 0 mm 1 mps 733 mmHg 73%
    08:00 +25°C° 0 mm 1 mps 733 mmHg 64%
    09:00 +28°C° 0 mm 1 mps 733 mmHg 56%
    10:00 +30°C° 0 mm 1 mps 733 mmHg 47%
    11:00 +33°C° 0 mm 1 mps 733 mmHg 42%
    12:00 +35°C° 0 mm 1 mps 732 mmHg 36%
    13:00 +37°C° 0 mm 1 mps 732 mmHg 31%
    14:00 +37°C° 0 mm 1 mps 731 mmHg 30%
    15:00 +34°C° 0 mm 0 mps 730 mmHg 29%
    16:00 +34°C° 0 mm 0 mps 730 mmHg 28%
    17:00 +32°C° 0 mm 0 mps 730 mmHg 34%
    18:00 +31°C° 0 mm 1 mps 730 mmHg 41%
    19:00 +29°C° 0 mm 1 mps 730 mmHg 47%
    20:00 +28°C° 0 mm 1 mps 731 mmHg 50%
    21:00 +27°C° 0 mm 1 mps 731 mmHg 53%
    22:00 +27°C° 0 mm 1 mps 732 mmHg 57%
    23:00 +26°C° 0 mm 1 mps 732 mmHg 59%
    Show more